Weather History for Springfield, OH

Change the Weather History Date:

Monday, January 14, 2013

  Actual Average (KDAY) Record (KDAY)
Temperature  
Mean Temperature 26 °F 27 °F  
Max Temperature 32 °F 34 °F 68 °F (1932)
Min Temperature 21 °F 20 °F -2 °F (1964)
Degree Days  
Heating Degree Days 38 38  
Month to date heating degree days 526  
Since 1 July heating degree days 2685  
Cooling Degree Days 0 0  
Month to date cooling degree days 0  
Year to date cooling degree days 0  
Moisture  
Dew Point 19 °F    
Average Humidity 82    
Maximum Humidity 93    
Minimum Humidity 74    
Precipitation  
Precipitation 0.00 in 0.09 in 2.42 in (1937)
Month to date precipitation 1.32  
Year to date precipitation 1.32  
Snow  
Snow 0.00 in 0.30 in 3.90 in (1917)
Month to date snowfall 3.5  
Since 1 July snowfall 9.0  
Snow Depth -    
Sea Level Pressure  
Sea Level Pressure 30.34 in    
Wind  
Wind Speed 11 mph (NNW)    
Max Wind Speed 16 mph    
Max Gust Speed 20 mph    
Visibility 5 miles    
Events      
T = Trace of Precipitation, MM = Missing Value Source: NWS Daily Summary

Daily Weather History Graph

Daily Weather History Graph

Search for Another Location

Airport:

Trip Planner

Search our weather history database for the weather conditions in past years. The results will help you decide how hot, cold, wet, or windy it might be!

Date:

Astronomy

Jan. 14, 2013 Rise Set
Actual Time 7:55 AM EST 5:34 PM EST
Civil Twilight 7:25 AM EST 6:03 PM EST
Nautical Twilight 6:52 AM EST 6:37 PM EST
Astronomical Twilight 6:19 AM EST 7:09 PM EST
Moon 9:28 AM EST (1/14) 9:18 PM EST (1/14)
Length of Visible Light 10h 38m
Length of Day
9h 39m
Waxing Crescent, 11% of the Moon is Illuminated
Jan 14
Waxing Crescent
Jan 18
First Quarter
Jan 26
Full
Feb 3
Last Quarter
Feb 10
New

Hourly Weather History & Observations

Time (EST) Temp. Windchill Dew Point Humidity Pressure Visibility Wind Dir Wind Speed Gust Speed Precip Events Conditions
12:56 AM 32.0 °F 21.6 °F 29.1 °F 89% 30.15 in 5.0 mi WNW 15.0 mph - N/A   Overcast
1:04 AM 30.2 °F 19.3 °F 28.4 °F 93% 30.14 in 5.0 mi WNW 15.0 mph - N/A   Overcast
1:16 AM 30.2 °F 19.8 °F 28.4 °F 93% 30.15 in 5.0 mi West 13.8 mph - N/A   Overcast
1:40 AM 30.2 °F 19.3 °F 24.8 °F 80% 30.16 in 6.0 mi West 15.0 mph - N/A   Haze
1:56 AM 29.1 °F 17.9 °F 24.1 °F 81% 30.19 in 6.0 mi WNW 15.0 mph - N/A   Haze
2:56 AM 27.1 °F 16.4 °F 23.0 °F 84% 30.23 in 6.0 mi WNW 12.7 mph 19.6 mph N/A   Overcast
3:56 AM 25.2 °F 13.9 °F 21.0 °F 84% 30.26 in 5.0 mi NW 12.7 mph - N/A   Overcast
4:56 AM 23.0 °F 9.6 °F 19.0 °F 85% 30.27 in 5.0 mi WNW 16.1 mph - N/A   Overcast
5:56 AM 22.1 °F 11.3 °F 18.1 °F 85% 30.30 in 5.0 mi NW 10.4 mph - N/A   Overcast
6:56 AM 21.0 °F 10.6 °F 17.1 °F 85% 30.34 in 5.0 mi WNW 9.2 mph - N/A   Overcast
7:56 AM 21.0 °F 11.4 °F 18.1 °F 89% 30.38 in 5.0 mi WNW 8.1 mph - N/A   Overcast
8:56 AM 21.0 °F 11.4 °F 17.1 °F 85% 30.42 in 4.0 mi WNW 8.1 mph - N/A   Overcast
9:56 AM 22.1 °F 11.3 °F 17.1 °F 81% 30.43 in 5.0 mi WNW 10.4 mph - N/A   Haze
10:56 AM 22.1 °F 14.7 °F 17.1 °F 81% 30.43 in 5.0 mi NNW 5.8 mph - N/A   Haze
11:56 AM 23.0 °F 14.7 °F 18.1 °F 82% 30.38 in 5.0 mi ENE 6.9 mph - N/A   Haze
12:56 PM 23.0 °F 17.0 °F 17.1 °F 78% 30.38 in 5.0 mi NW 4.6 mph - N/A   Haze
1:17 PM 24.8 °F 17.9 °F 17.6 °F 74% 30.33 in 5.0 mi NW 5.8 mph - N/A   Haze
1:56 PM 24.1 °F 16.0 °F 18.1 °F 78% 30.39 in 5.0 mi NNW 6.9 mph - N/A   Haze
2:56 PM 25.2 °F 15.1 °F 18.1 °F 75% 30.38 in 5.0 mi North 10.4 mph - N/A   Haze
3:45 PM 24.8 °F 14.6 °F 17.6 °F 74% 30.37 in 5.0 mi North 10.4 mph - N/A   Haze
3:56 PM 24.1 °F 13.7 °F 18.1 °F 78% 30.42 in 5.0 mi NNW 10.4 mph - N/A   Haze
4:06 PM 23.0 °F 13.9 °F 17.6 °F 80% 30.38 in 5.0 mi NNW 8.1 mph - N/A   Haze
4:56 PM 23.0 °F 13.9 °F 17.1 °F 78% 30.48 in 5.0 mi NNW 8.1 mph - N/A   Haze
5:43 PM 23.0 °F 14.7 °F 17.6 °F 80% 30.38 in 6.0 mi North 6.9 mph - N/A   Haze
5:56 PM 23.0 °F 14.7 °F 17.1 °F 78% 30.42 in 6.0 mi North 6.9 mph - N/A   Haze
6:11 PM 23.0 °F 14.7 °F 17.6 °F 80% 30.38 in 6.0 mi NNE 6.9 mph - N/A   Haze
6:56 PM 23.0 °F 12.4 °F 17.1 °F 78% 30.43 in 6.0 mi North 10.4 mph - N/A   Haze
7:47 PM 23.0 °F 15.8 °F 17.6 °F 80% 30.38 in 6.0 mi NNE 5.8 mph - N/A   Haze
7:56 PM 23.0 °F 15.8 °F 17.1 °F 78% 30.43 in 6.0 mi NNE 5.8 mph - N/A   Haze
8:56 PM 22.1 °F 14.7 °F 17.1 °F 81% 30.41 in 6.0 mi NE 5.8 mph - N/A   Haze
9:19 PM 21.2 °F 14.9 °F 17.6 °F 86% 30.36 in 6.0 mi NE 4.6 mph - N/A   Haze
9:56 PM 23.0 °F 13.9 °F 18.1 °F 82% 30.38 in 6.0 mi NE 8.1 mph - N/A   Haze
10:34 PM 23.0 °F 15.8 °F 17.6 °F 80% 30.33 in 6.0 mi North 5.8 mph - N/A   Haze
10:49 PM 21.2 °F 13.6 °F 17.6 °F 86% 30.34 in 6.0 mi NNE 5.8 mph - N/A   Haze
10:56 PM 22.1 °F 13.7 °F 17.1 °F 81% 30.39 in 6.0 mi North 6.9 mph - N/A   Haze
11:56 PM 21.0 °F 13.4 °F 17.1 °F 85% 30.39 in 6.0 mi North 5.8 mph - N/A   Clear